This is the latest recevied weather packets stored in our database for station/object IN3XSV. If no packets are shown the sender has not sent any weather packets the latest 10 day(s).
| Time | Temp. | Humidity | Pressure | Rain* | Wind** | Luminosity | Snow |
|---|---|---|---|---|---|---|---|
| 1777020848 | 15° C | 41% | 1011.8 hPa | 0 mm | - | - | - |
| 1777020548 | 13.89° C | 40% | 1012 hPa | 0 mm | - | - | - |
| 1777020248 | 13.89° C | 39% | 1011.9 hPa | 0 mm | - | - | - |
| 1777019948 | 13.89° C | 42% | 1012 hPa | 0 mm | - | - | - |
| 1777019648 | 13.89° C | 42% | 1012 hPa | 0 mm | - | - | - |
| 1777019348 | 13.89° C | 40% | 1012.1 hPa | 0 mm | - | - | - |
| 1777019048 | 13.89° C | 42% | 1012.3 hPa | 0 mm | - | - | - |
| 1777018748 | 13.89° C | 45% | 1012.4 hPa | 0 mm | - | - | - |
| 1777018448 | 13.89° C | 49% | 1012.4 hPa | 0 mm | - | - | - |
| 1777018148 | 13.33° C | 48% | 1012.3 hPa | 0 mm | - | - | - |
| 1777017848 | 12.78° C | 49% | 1012.4 hPa | 0 mm | - | - | - |
| 1777017548 | 12.22° C | 48% | 1012.6 hPa | 0 mm | - | - | - |
| 1777017283 | 12.22° C | 51% | 1012.6 hPa | 0 mm | - | - | - |
| 1777017248 | 12.22° C | 51% | 1012.6 hPa | 0 mm | - | - | - |
| 1777016948 | 12.22° C | 55% | 1012.6 hPa | 0 mm | - | - | - |
| 1777016648 | 12.22° C | 57% | 1012.8 hPa | 0 mm | - | - | - |
| 1777016348 | 12.22° C | 57% | 1012.7 hPa | 0 mm | - | - | - |
| 1777016048 | 11.67° C | 59% | 1012.8 hPa | 0 mm | - | - | - |
| 1777015748 | 11.67° C | 61% | 1012.8 hPa | 0 mm | - | - | - |
| 1777015448 | 11.11° C | 61% | 1012.8 hPa | 0 mm | - | - | - |
| 1777015148 | 10.56° C | 63% | 1012.7 hPa | 0 mm | - | - | - |
| 1777014880 | 10.56° C | 63% | 1012.8 hPa | 0 mm | - | - | - |
| 1777014848 | 10.56° C | 63% | 1012.8 hPa | 0 mm | - | - | - |
| 1777014548 | 10° C | 65% | 1013 hPa | 0 mm | - | - | - |
| 1777014248 | 10° C | 65% | 1013.1 hPa | 0 mm | - | - | - |
* Rain latest hour (hover to see other rain measurements)
** Current wind speed in m/s (hover to see current wind gust speed)